Tracking 19846 objects as of 19-Sep-2019
HD Live streaming from Space Station
objects crossing your sky now

GARUDA 1

Track GARUDA 1 now!
GARUDA 1 is classified as:


NORAD ID: 26089
Int'l Code: 2000-011A
Perigee: 35,889.7 km
Apogee: 35,906.6 km
Inclination: 3.6 °
Period: 1,441.4 minutes
Semi major axis: 42269 km
RCS: 16.0243 m2 (large)
Launch date: February 12, 2000
Source: Indonesia (INDO)
Launch site: TYURATAM MISSILE AND SPACE COMPLEX (TTMTR)

L-band; mobile telephone communications.
aabbcc
Your satellite tracking list
Your tracking list is empty




NASA's NSSDC Master Catalog

Two Line Element Set (TLE):
1 26089U 00011A   19261.57058208  .00000006  00000-0  00000+0 0  9996
2 26089   3.6079  95.7322 0002001 110.9241  68.8932  0.99900491 71703
Source of the keplerian elements: AFSPC